QPF
0.00 0.00 0.00 0.00 0.00 0.00 0.00 0.00 0.00 0.00 0.00 0.00 0.00 0.01 0.01 0.01 0.01 0.01 0.01 0.01 0.01 0.01 0.01 0.02 0.02 0.01 0.01 0.00 0.00 0.00 0.00 0.00 0.00 0.00 0.00 0.00 0.00 0.01 0.01 0.02 0.03 0.03 0.01 0.00 0.00 0.00 0.00 0.00 0.00 0.00 0.00 0.00 0.00 0.00 0.00 0.00 0.00 0.00 0.00 0.00 0.00 0.00 0.00
0.00 0.00 0.00 0.00 0.00 0.00 0.00 0.00 0.00 0.00 0.00 0.00 0.01 0.01 0.01 0.01 0.02 0.02 0.02 0.02 0.02 0.02 0.01 0.02 0.02 0.02 0.02 0.02 0.01 0.01 0.00 0.00 0.00 0.00 0.00 0.00 0.00 0.00 0.00 0.00 0.00 0.01 0.00 0.00 0.00 0.00 0.00 0.00 0.00 0.00 0.00 0.00 0.00 0.00 0.00 0.00 0.00 0.00 0.00 0.00 0.00 0.00 0.00
0.00 0.00 0.00 0.00 0.00 0.00 0.00 0.00 0.00 0.00 0.00 0.00 0.00 0.01 0.01 0.02 0.02 0.03 0.03 0.03 0.03 0.04 0.03 0.03 0.03 0.03 0.03 0.03 0.03 0.02 0.02 0.02 0.01 0.01 0.00 0.00 0.00 0.00 0.00 0.00 0.00 0.00 0.00 0.00 0.00 0.00 0.00 0.00 0.00 0.00 0.00 0.00 0.00 0.00 0.00 0.00 0.00 0.00 0.00 0.00 0.00 0.00 0.00
0.00 0.00 0.00 0.00 0.00 0.00 0.00 0.00 0.00 0.00 0.00 0.00 0.00 0.00 0.00 0.01 0.01 0.02 0.03 0.04 0.04 0.05 0.07 0.07 0.06 0.06 0.05 0.04 0.03 0.03 0.03 0.03 0.03 0.02 0.02 0.02 0.01 0.01 0.00 0.00 0.00 0.00 0.00 0.00 0.00 0.00 0.00 0.00 0.00 0.00 0.00 0.00 0.00 0.00 0.00 0.00 0.00 0.00 0.00 0.00 0.00 0.00 0.00
0.00 0.00 0.00 0.00 0.00 0.00 0.00 0.00 0.00 0.00 0.00 0.00 0.00 0.00 0.00 0.00 0.00 0.01 0.01 0.03 0.04 0.07 0.08 0.08 0.08 0.08 0.07 0.07 0.06 0.06 0.05 0.05 0.05 0.05 0.04 0.04 0.04 0.03 0.03 0.02 0.02 0.01 0.01 0.01 0.01 0.01 0.00 0.00 0.00 0.00 0.00 0.00 0.00 0.00 0.00 0.00 0.00 0.00 0.00 0.00 0.00 0.00 0.00
0.00 0.00 0.00 0.00 0.00 0.00 0.00 0.00 0.00 0.00 0.00 0.00 0.00 0.00 0.00 0.00 0.00 0.00 0.01 0.01 0.01 0.03 0.05 0.07 0.07 0.08 0.07 0.06 0.07 0.08 0.07 0.07 0.07 0.06 0.06 0.06 0.06 0.06 0.06 0.06 0.05 0.05 0.05 0.04 0.03 0.02 0.01 0.00 0.00 0.00 0.00 0.00 0.00 0.00 0.00 0.00 0.00 0.00 0.00 0.00 0.00 0.00 0.00
0.00 0.00 0.00 0.00 0.00 0.00 0.00 0.00 0.00 0.00 0.00 0.00 0.00 0.00 0.00 0.00 0.00 0.01 0.01 0.02 0.01 0.01 0.01 0.02 0.03 0.04 0.05 0.06 0.07 0.07 0.07 0.07 0.07 0.07 0.07 0.07 0.08 0.08 0.08 0.08 0.08 0.07 0.07 0.07 0.06 0.04 0.03 0.02 0.01 0.00 0.00 0.00 0.00 0.00 0.00 0.00 0.00 0.00 0.00 0.00 0.00 0.00 0.00
0.00 0.00 0.00 0.00 0.00 0.00 0.00 0.00 0.00 0.00 0.00 0.00 0.00 0.00 0.00 0.00 0.01 0.01 0.01 0.02 0.01 0.01 0.01 0.01 0.01 0.02 0.02 0.03 0.03 0.03 0.04 0.05 0.06 0.07 0.07 0.07 0.07 0.07 0.07 0.08 0.07 0.07 0.08 0.07 0.06 0.05 0.04 0.03 0.02 0.01 0.01 0.01 0.00 0.00 0.00 0.00 0.00 0.00 0.00 0.00 0.00 0.00 0.00
0.00 0.00 0.00 0.00 0.00 0.00 0.00 0.00 0.00 0.00 0.00 0.00 0.00 0.00 0.01 0.01 0.02 0.02 0.02 0.01 0.01 0.01 0.01 0.01 0.01 0.01 0.01 0.01 0.01 0.02 0.02 0.02 0.02 0.02 0.03 0.04 0.04 0.05 0.05 0.04 0.05 0.05 0.05 0.05 0.04 0.03 0.03 0.02 0.01 0.01 0.01 0.02 0.01 0.01 0.01 0.00 0.00 0.00 0.00 0.00 0.00 0.00 0.00
0.00 0.00 0.00 0.00 0.00 0.00 0.00 0.00 0.00 0.00 0.00 0.00 0.01 0.02 0.04 0.04 0.03 0.02 0.01 0.01 0.01 0.01 0.01 0.01 0.01 0.01 0.01 0.01 0.01 0.01 0.01 0.01 0.01 0.01 0.01 0.01 0.02 0.02 0.02 0.03 0.03 0.03 0.03 0.03 0.03 0.03 0.02 0.02 0.01 0.01 0.01 0.01 0.02 0.01 0.01 0.01 0.01 0.01 0.00 0.00 0.00 0.00 0.00
0.00 0.00 0.00 0.00 0.00 0.00 0.00 0.00 0.00 0.00 0.00 0.01 0.02 0.04 0.06 0.04 0.03 0.03 0.03 0.02 0.01 0.01 0.01 0.01 0.01 0.01 0.01 0.01 0.01 0.01 0.01 0.01 0.01 0.01 0.01 0.01 0.01 0.01 0.01 0.02 0.02 0.02 0.02 0.02 0.03 0.02 0.02 0.02 0.02 0.01 0.01 0.02 0.02 0.02 0.02 0.01 0.01 0.01 0.01 0.00 0.00 0.01 0.00
0.00 0.00 0.00 0.00 0.00 0.00 0.00 0.00 0.00 0.00 0.01 0.01 0.03 0.08 0.08 0.03 0.02 0.02 0.01 0.01 0.01 0.01 0.00 0.00 0.00 0.00 0.00 0.00 0.00 0.00 0.00 0.00 0.00 0.00 0.00 0.00 0.00 0.00 0.00 0.01 0.02 0.03 0.02 0.02 0.02 0.02 0.02 0.02 0.03 0.02 0.02 0.02 0.02 0.02 0.02 0.02 0.02 0.02 0.02 0.01 0.01 0.01 0.00
0.00 0.00 0.00 0.00 0.00 0.00 0.00 0.00 0.00 0.00 0.01 0.02 0.03 0.09 0.08 0.03 0.02 0.02 0.01 0.00 0.00 0.01 0.00 0.00 0.00 0.00 0.00 0.00 0.00 0.00 0.00 0.00 0.00 0.00 0.00 0.00 0.00 0.00 0.00 0.00 0.01 0.02 0.02 0.03 0.02 0.03 0.02 0.02 0.03 0.02 0.02 0.02 0.03 0.03 0.03 0.03 0.02 0.02 0.02 0.02 0.02 0.01 0.01
0.00 0.00 0.00 0.00 0.00 0.00 0.00 0.00 0.00 0.00 0.01 0.02 0.03 0.10 0.04 0.02 0.01 0.01 0.00 0.00 0.01 0.01 0.00 0.00 0.00 0.00 0.00 0.00 0.00 0.00 0.00 0.00 0.01 0.00 0.00 0.00 0.00 0.00 0.00 0.00 0.00 0.00 0.01 0.02 0.03 0.04 0.03 0.02 0.02 0.03 0.03 0.02 0.02 0.03 0.04 0.04 0.04 0.03 0.03 0.03 0.03 0.02 0.01
0.00 0.00 0.00 0.00 0.00 0.00 0.00 0.00 0.00 0.01 0.01 0.03 0.03 0.11 0.02 0.01 0.00 0.01 0.01 0.01 0.01 0.01 0.01 0.01 0.00 0.00 0.00 0.00 0.00 0.00 0.00 0.01 0.01 0.01 0.00 0.00 0.00 0.00 0.00 0.00 0.00 0.00 0.01 0.01 0.01 0.02 0.02 0.03 0.02 0.03 0.03 0.02 0.02 0.02 0.03 0.03 0.04 0.04 0.04 0.04 0.03 0.02 0.01
0.00 0.00 0.00 0.00 0.01 0.01 0.00 0.00 0.00 0.01 0.01 0.03 0.04 0.09 0.02 0.00 0.01 0.01 0.01 0.01 0.02 0.02 0.01 0.01 0.00 0.00 0.01 0.01 0.00 0.00 0.00 0.01 0.02 0.01 0.00 0.01 0.00 0.00 0.00 0.00 0.00 0.00 0.00 0.00 0.00 0.01 0.01 0.01 0.01 0.01 0.01 0.01 0.02 0.02 0.02 0.02 0.03 0.03 0.03 0.03 0.04 0.04 0.02
0.00 0.00 0.00 0.01 0.01 0.01 0.01 0.01 0.00 0.00 0.01 0.03 0.04 0.07 0.02 0.01 0.01 0.01 0.01 0.01 0.02 0.02 0.02 0.01 0.01 0.01 0.01 0.01 0.00 0.00 0.01 0.01 0.01 0.01 0.00 0.01 0.00 0.00 0.00 0.00 0.00 0.00 0.00 0.00 0.00 0.00 0.00 0.00 0.00 0.00 0.00 0.00 0.00 0.00 0.01 0.01 0.02 0.02 0.02 0.03 0.05 0.04 0.02
0.00 0.00 0.01 0.01 0.01 0.01 0.01 0.01 0.00 0.01 0.01 0.03 0.03 0.07 0.04 0.01 0.01 0.01 0.01 0.01 0.02 0.02 0.02 0.01 0.01 0.01 0.01 0.00 0.00 0.01 0.01 0.02 0.01 0.01 0.01 0.00 0.00 0.00 0.00 0.00 0.00 0.00 0.00 0.00 0.00 0.00 0.00 0.00 0.00 0.00 0.00 0.00 0.00 0.00 0.00 0.00 0.01 0.02 0.02 0.03 0.03 0.04 0.03
0.00 0.01 0.01 0.01 0.01 0.01 0.02 0.01 0.01 0.01 0.01 0.02 0.05 0.03 0.02 0.01 0.02 0.02 0.02 0.02 0.01 0.01 0.01 0.00 0.00 0.00 0.01 0.01 0.01 0.01 0.02 0.02 0.02 0.01 0.01 0.00 0.00 0.00 0.00 0.01 0.01 0.00 0.00 0.00 0.00 0.00 0.00 0.00 0.00 0.00 0.00 0.00 0.00 0.00 0.00 0.00 0.00 0.00 0.01 0.03 0.03 0.03 0.03
0.01 0.01 0.01 0.01 0.01 0.01 0.01 0.01 0.01 0.01 0.01 0.02 0.08 0.04 0.01 0.01 0.02 0.02 0.02 0.01 0.01 0.00 0.00 0.00 0.00 0.00 0.01 0.01 0.01 0.02 0.02 0.02 0.02 0.01 0.00 0.00 0.00 0.01 0.01 0.01 0.00 0.00 0.00 0.00 0.00 0.00 0.00 0.00 0.00 0.00 0.00 0.00 0.00 0.00 0.00 0.00 0.00 0.00 0.01 0.02 0.03 0.03 0.03
0.01 0.01 0.01 0.01 0.01 0.01 0.02 0.01 0.01 0.01 0.01 0.02 0.07 0.05 0.01 0.01 0.02 0.02 0.01 0.01 0.00 0.00 0.00 0.00 0.00 0.00 0.00 0.01 0.02 0.03 0.02 0.02 0.02 0.01 0.00 0.01 0.02 0.02 0.01 0.00 0.00 0.00 0.00 0.00 0.00 0.00 0.00 0.00 0.00 0.00 0.00 0.00 0.00 0.00 0.00 0.00 0.00 0.00 0.00 0.01 0.02 0.03 0.03
0.01 0.01 0.01 0.01 0.01 0.02 0.03 0.01 0.01 0.01 0.01 0.02 0.08 0.09 0.02 0.02 0.02 0.01 0.00 0.00 0.00 0.00 0.00 0.00 0.00 0.00 0.00 0.01 0.02 0.02 0.02 0.02 0.01 0.01 0.01 0.02 0.01 0.00 0.00 0.00 0.00 0.00 0.00 0.00 0.00 0.00 0.00 0.00 0.00 0.00 0.00 0.00 0.00 0.00 0.00 0.00 0.00 0.00 0.00 0.00 0.00 0.01 0.02
0.01 0.01 0.01 0.01 0.02 0.02 0.02 0.01 0.01 0.01 0.01 0.02 0.06 0.07 0.06 0.03 0.01 0.00 0.00 0.00 0.00 0.00 0.00 0.00 0.00 0.00 0.02 0.02 0.02 0.02 0.02 0.01 0.01 0.01 0.01 0.01 0.00 0.00 0.00 0.00 0.00 0.00 0.00 0.00 0.00 0.00 0.00 0.00 0.00 0.00 0.00 0.00 0.00 0.00 0.00 0.00 0.00 0.00 0.00 0.00 0.00 0.00 0.00
0.01 0.02 0.01 0.02 0.02 0.02 0.01 0.01 0.01 0.01 0.01 0.01 0.02 0.05 0.04 0.03 0.01 0.00 0.00 0.00 0.00 0.00 0.00 0.00 0.00 0.01 0.02 0.02 0.02 0.01 0.01 0.00 0.01 0.01 0.00 0.00 0.00 0.00 0.00 0.00 0.00 0.00 0.00 0.00 0.00 0.00 0.00 0.00 0.00 0.00 0.00 0.00 0.00 0.00 0.00 0.00 0.00 0.00 0.00 0.00 0.00 0.00 0.00
0.01 0.01 0.01 0.01 0.02 0.01 0.01 0.01 0.01 0.01 0.01 0.00 0.01 0.01 0.02 0.01 0.00 0.00 0.00 0.00 0.00 0.00 0.00 0.01 0.01 0.01 0.01 0.00 0.00 0.00 0.00 0.00 0.00 0.00 0.00 0.00 0.00 0.00 0.00 0.00 0.00 0.00 0.00 0.00 0.00 0.00 0.00 0.00 0.00 0.00 0.00 0.00 0.00 0.00 0.00 0.00 0.00 0.00 0.00 0.00 0.00 0.00 0.00
0.01 0.01 0.01 0.01 0.01 0.01 0.01 0.01 0.01 0.01 0.01 0.00 0.00 0.00 0.00 0.00 0.00 0.00 0.00 0.00 0.00 0.00 0.00 0.00 0.00 0.00 0.00 0.00 0.00 0.00 0.00 0.00 0.00 0.00 0.00 0.00 0.00 0.00 0.00 0.00 0.00 0.00 0.00 0.00 0.00 0.00 0.00 0.00 0.00 0.00 0.00 0.00 0.00 0.00 0.00 0.00 0.00 0.00 0.00 0.00 0.00 0.00 0.00
0.01 0.01 0.01 0.01 0.01 0.01 0.01 0.00 0.01 0.00 0.00 0.00 0.00 0.00 0.00 0.00 0.00 0.00 0.00 0.00 0.00 0.00 0.00 0.00 0.00 0.00 0.00 0.00 0.00 0.00 0.00 0.00 0.00 0.00 0.00 0.00 0.00 0.00 0.00 0.00 0.00 0.00 0.00 0.00 0.00 0.00 0.00 0.00 0.00 0.00 0.00 0.00 0.00 0.00 0.00 0.00 0.00 0.00 0.00 0.00 0.00 0.00 0.00
0.01 0.01 0.01 0.01 0.01 0.00 0.00 0.00 0.00 0.00 0.00 0.01 0.01 0.00 0.00 0.00 0.00 0.00 0.00 0.00 0.00 0.00 0.00 0.00 0.00 0.00 0.00 0.00 0.00 0.00 0.00 0.00 0.00 0.00 0.00 0.00 0.00 0.00 0.00 0.00 0.00 0.00 0.00 0.00 0.00 0.00 0.00 0.00 0.00 0.00 0.00 0.00 0.00 0.00 0.00 0.00 0.00 0.00 0.00 0.00 0.00 0.00 0.00
0.01 0.01 0.00 0.00 0.00 0.00 0.00 0.00 0.00 0.00 0.00 0.02 0.03 0.01 0.00 0.00 0.00 0.00 0.00 0.00 0.00 0.00 0.00 0.00 0.00 0.00 0.00 0.00 0.00 0.00 0.00 0.00 0.00 0.00 0.00 0.00 0.00 0.00 0.00 0.00 0.00 0.00 0.00 0.00 0.00 0.00 0.00 0.00 0.00 0.00 0.00 0.00 0.00 0.00 0.00 0.00 0.00 0.00 0.00 0.00 0.00 0.00 0.00
0.04 0.02 0.00 0.00 0.00 0.00 0.00 0.00 0.00 0.00 0.01 0.04 0.03 0.02 0.02 0.02 0.01 0.00 0.00 0.00 0.00 0.00 0.00 0.00 0.00 0.00 0.00 0.00 0.00 0.00 0.00 0.00 0.00 0.00 0.00 0.00 0.00 0.00 0.00 0.00 0.00 0.00 0.00 0.00 0.00 0.00 0.00 0.00 0.00 0.00 0.00 0.00 0.00 0.00 0.00 0.00 0.00 0.00 0.00 0.00 0.00 0.00 0.00
0.04 0.02 0.00 0.00 0.00 0.00 0.00 0.00 0.00 0.00 0.03 0.03 0.02 0.02 0.02 0.02 0.01 0.00 0.00 0.00 0.00 0.00 0.00 0.00 0.00 0.00 0.00 0.00 0.00 0.00 0.00 0.00 0.00 0.00 0.00 0.00 0.00 0.00 0.00 0.00 0.00 0.00 0.00 0.00 0.00 0.00 0.00 0.00 0.00 0.00 0.00 0.00 0.00 0.00 0.00 0.00 0.00 0.00 0.00 0.00 0.00 0.00 0.00
0.03 0.03 0.02 0.01 0.00 0.00 0.00 0.00 0.00 0.00 0.02 0.02 0.02 0.01 0.00 0.02 0.01 0.00 0.00 0.00 0.00 0.00 0.00 0.00 0.00 0.00 0.00 0.00 0.00 0.00 0.00 0.00 0.00 0.00 0.00 0.00 0.00 0.00 0.00 0.00 0.00 0.00 0.00 0.00 0.00 0.00 0.00 0.00 0.00 0.00 0.00 0.00 0.00 0.00 0.00 0.00 0.00 0.00 0.00 0.00 0.00 0.00 0.00
0.00 0.00 0.01 0.02 0.03 0.03 0.01 0.00 0.00 0.00 0.01 0.01 0.02 0.01 0.00 0.01 0.00 0.00 0.00 0.00 0.00 0.00 0.00 0.00 0.00 0.00 0.00 0.00 0.00 0.00 0.00 0.00 0.00 0.00 0.00 0.00 0.00 0.00 0.00 0.00 0.00 0.00 0.00 0.00 0.00 0.00 0.00 0.00 0.00 0.00 0.00 0.00 0.00 0.00 0.00 0.00 0.00 0.00 0.00 0.00 0.00 0.00 0.00
0.00 0.00 0.00 0.00 0.00 0.00 0.00 0.00 0.00 0.00 0.00 0.01 0.00 0.00 0.00 0.00 0.00 0.00 0.00 0.00 0.00 0.00 0.00 0.00 0.00 0.00 0.00 0.00 0.00 0.00 0.00 0.00 0.00 0.00 0.00 0.00 0.00 0.00 0.00 0.00 0.00 0.00 0.00 0.00 0.00 0.00 0.00 0.00 0.00 0.00 0.00 0.00 0.00 0.00 0.00 0.00 0.00 0.00 0.00 0.00 0.00 0.00 0.00
0.00 0.00 0.00 0.00 0.00 0.00 0.00 0.00 0.00 0.00 0.00 0.00 0.00 0.00 0.00 0.00 0.00 0.00 0.00 0.00 0.00 0.00 0.00 0.00 0.00 0.00 0.00 0.00 0.00 0.00 0.00 0.00 0.00 0.00 0.00 0.00 0.00 0.00 0.00 0.00 0.00 0.00 0.00 0.00 0.00 0.00 0.00 0.00 0.00 0.00 0.00 0.00 0.00 0.00 0.00 0.00 0.00 0.00 0.00 0.00 0.00 0.00 0.00
0.00 0.00 0.00 0.00 0.00 0.00 0.00 0.00 0.00 0.00 0.00 0.01 0.00 0.00 0.00 0.00 0.00 0.00 0.00 0.00 0.00 0.00 0.00 0.00 0.00 0.00 0.00 0.00 0.00 0.00 0.00 0.00 0.00 0.00 0.00 0.00 0.00 0.00 0.00 0.00 0.00 0.00 0.00 0.00 0.00 0.00 0.00 0.00 0.00 0.00 0.00 0.00 0.00 0.00 0.00 0.00 0.00 0.00 0.00 0.00 0.00 0.00 0.00
MSLP
1026.93 1026.93 1026.93 1026.81 1026.69 1026.53 1026.33 1026.13 1025.97 1025.77 1025.57 1025.29 1024.97 1024.57 1024.01 1023.37 1022.93 1022.57 1022.21 1021.77 1021.29 1020.81 1020.41 1020.05 1019.69 1019.33 1019.05 1018.77 1018.53 1018.17 1017.97 1017.85 1017.85 1017.93 1018.05 1018.13 1018.29 1018.41 1018.41 1018.57 1018.69 1018.65 1018.25 1018.01 1017.97 1017.85 1017.69 1017.77 1018.09 1017.97 1018.13 1018.17 1018.37 1018.49 1018.61 1018.73 1018.85 1018.97 1019.13 1019.25 1019.37 1019.37 1019.33
1026.77 1026.77 1026.77 1026.77 1026.65 1026.53 1026.41 1026.29 1026.09 1025.97 1025.77 1025.61 1025.17 1024.69 1024.05 1023.57 1023.17 1022.89 1022.49 1022.05 1021.65 1021.09 1020.57 1020.13 1019.73 1019.33 1019.01 1018.73 1018.61 1018.41 1018.21 1018.09 1017.89 1017.81 1017.81 1017.81 1017.89 1017.93 1017.93 1018.01 1018.33 1018.33 1018.21 1018.21 1017.85 1017.81 1017.97 1017.93 1017.97 1017.77 1018.25 1018.05 1018.05 1018.21 1018.57 1018.73 1018.81 1018.89 1018.93 1019.01 1019.09 1019.21 1019.13
1026.61 1026.61 1026.65 1026.65 1026.57 1026.49 1026.45 1026.33 1026.25 1026.09 1025.97 1025.77 1025.45 1025.01 1024.45 1023.89 1023.45 1023.13 1022.69 1022.17 1021.65 1021.13 1020.61 1020.13 1019.69 1019.45 1019.13 1018.81 1018.65 1018.45 1018.41 1018.33 1018.25 1018.17 1018.01 1017.93 1017.89 1017.85 1017.81 1017.81 1017.89 1017.93 1018.05 1018.09 1018.05 1017.93 1017.81 1017.85 1017.93 1018.01 1018.17 1018.53 1018.61 1018.61 1018.69 1018.69 1018.81 1018.89 1018.97 1019.01 1019.09 1019.09 1019.05
1026.45 1026.45 1026.53 1026.53 1026.45 1026.41 1026.37 1026.33 1026.25 1026.13 1026.05 1025.85 1025.53 1025.17 1024.73 1024.13 1023.61 1023.17 1022.65 1022.21 1021.65 1021.05 1020.65 1020.49 1020.29 1020.05 1019.77 1019.37 1019.13 1019.17 1019.09 1018.93 1018.77 1018.57 1018.41 1018.33 1018.33 1018.21 1018.09 1017.97 1017.97 1018.01 1018.05 1018.09 1018.21 1018.05 1018.05 1018.01 1018.05 1018.13 1018.33 1018.45 1018.57 1018.53 1018.57 1018.73 1018.81 1018.97 1018.97 1019.01 1019.01 1018.97 1018.97
1026.33 1026.33 1026.37 1026.45 1026.41 1026.29 1026.25 1026.21 1026.17 1026.13 1026.01 1025.77 1025.49 1025.17 1024.81 1024.25 1023.65 1023.13 1022.65 1022.05 1021.65 1021.33 1021.17 1020.89 1020.65 1020.49 1020.29 1020.01 1019.89 1019.85 1019.85 1019.69 1019.53 1019.29 1019.17 1019.17 1019.09 1018.97 1018.61 1018.33 1018.17 1018.17 1018.13 1018.29 1018.41 1018.37 1018.33 1018.29 1018.41 1018.45 1018.53 1018.61 1018.65 1018.73 1018.81 1018.89 1018.89 1018.89 1018.93 1018.97 1018.97 1018.97 1018.89
1026.25 1026.25 1026.29 1026.33 1026.33 1026.25 1026.17 1026.09 1026.13 1026.13 1025.97 1025.69 1025.41 1025.13 1024.69 1024.17 1023.61 1023.01 1022.49 1021.97 1021.81 1021.69 1021.45 1021.25 1020.97 1020.89 1020.81 1020.73 1020.73 1020.73 1020.65 1020.41 1020.21 1019.97 1019.81 1019.77 1019.69 1019.41 1019.25 1019.01 1018.81 1018.57 1018.45 1018.45 1018.57 1018.57 1018.69 1018.61 1018.69 1018.69 1018.77 1018.69 1018.77 1018.89 1018.93 1018.89 1018.93 1018.97 1019.01 1018.89 1018.77 1018.77 1018.85
1026.21 1026.21 1026.21 1026.25 1026.25 1026.21 1026.05 1025.97 1026.05 1026.05 1025.85 1025.61 1025.33 1025.01 1024.61 1024.09 1023.53 1022.97 1022.41 1021.97 1021.89 1021.77 1021.65 1021.45 1021.29 1021.29 1021.29 1021.33 1021.25 1021.25 1021.09 1020.89 1020.73 1020.57 1020.45 1020.25 1020.21 1019.81 1019.69 1019.45 1019.41 1019.25 1019.01 1018.73 1018.61 1018.57 1018.57 1018.69 1018.77 1018.81 1018.85 1018.77 1018.81 1018.93 1019.01 1019.13 1019.09 1018.97 1018.85 1018.85 1018.93 1018.77 1018.73
1026.13 1026.17 1026.21 1026.25 1026.25 1026.13 1025.97 1025.89 1025.93 1025.89 1025.69 1025.49 1025.21 1024.85 1024.41 1023.81 1023.29 1022.85 1022.33 1022.05 1022.01 1021.93 1021.81 1021.77 1021.81 1021.77 1021.73 1021.69 1021.61 1021.49 1021.29 1021.13 1021.05 1020.89 1020.81 1020.53 1020.49 1020.21 1020.05 1019.85 1019.65 1019.57 1019.41 1019.41 1019.25 1019.17 1019.09 1018.97 1018.89 1019.01 1019.09 1019.01 1018.93 1019.01 1019.05 1019.09 1019.09 1019.09 1018.89 1018.77 1018.73 1018.73 1018.65
1026.13 1026.13 1026.17 1026.21 1026.21 1026.09 1025.89 1025.77 1025.81 1025.77 1025.57 1025.37 1024.89 1024.29 1023.77 1023.17 1022.73 1022.29 1022.05 1022.17 1022.21 1022.13 1022.05 1022.09 1022.17 1022.17 1022.09 1022.01 1021.89 1021.69 1021.49 1021.29 1021.09 1021.05 1021.01 1020.77 1020.69 1020.49 1020.41 1020.17 1019.97 1019.89 1019.77 1019.69 1019.65 1019.69 1019.45 1019.61 1019.45 1019.33 1019.45 1019.53 1019.45 1019.57 1019.57 1019.21 1019.01 1018.89 1018.73 1018.73 1018.65 1018.53 1018.57
1026.09 1026.09 1026.09 1026.13 1026.13 1026.01 1025.77 1025.65 1025.65 1025.53 1025.17 1024.65 1024.17 1023.49 1022.93 1022.69 1022.57 1022.49 1022.41 1022.37 1022.45 1022.37 1022.41 1022.61 1022.61 1022.53 1022.45 1022.37 1022.25 1022.09 1021.77 1021.45 1021.21 1021.09 1021.05 1021.09 1021.01 1020.85 1020.73 1020.49 1020.45 1020.37 1020.53 1020.41 1020.45 1020.21 1020.09 1019.89 1019.89 1020.13 1020.21 1020.41 1020.53 1020.61 1020.29 1020.09 1019.77 1019.69 1019.21 1018.93 1018.93 1018.53 1018.53
1026.01 1025.97 1026.01 1026.09 1026.01 1025.81 1025.61 1025.53 1025.45 1025.17 1024.49 1023.93 1023.37 1022.77 1022.89 1022.81 1022.69 1022.69 1022.69 1022.69 1022.65 1022.69 1022.81 1023.05 1023.09 1023.05 1022.89 1022.77 1022.65 1022.49 1022.17 1021.77 1021.61 1021.57 1021.57 1021.53 1021.49 1021.33 1021.13 1020.97 1020.85 1020.85 1020.93 1020.77 1020.89 1020.69 1020.81 1020.97 1021.29 1021.45 1021.21 1021.29 1021.13 1021.01 1020.89 1020.89 1020.41 1020.17 1019.77 1019.73 1019.25 1019.05 1018.33
1025.85 1025.89 1025.93 1025.93 1025.81 1025.65 1025.45 1025.37 1025.21 1024.65 1024.21 1023.69 1023.09 1022.61 1022.93 1022.89 1022.77 1022.81 1022.81 1022.85 1022.85 1022.85 1023.09 1023.33 1023.41 1023.41 1023.33 1023.09 1022.89 1022.81 1022.65 1022.29 1022.01 1021.97 1022.05 1022.05 1022.05 1021.97 1021.73 1021.49 1021.49 1021.53 1021.57 1021.61 1021.61 1021.69 1021.85 1021.93 1021.97 1022.25 1021.77 1021.77 1021.65 1021.45 1021.29 1021.13 1020.85 1020.89 1020.61 1020.49 1020.21 1019.61 1019.33
1025.85 1025.81 1025.77 1025.73 1025.65 1025.49 1025.29 1025.25 1025.05 1024.53 1024.05 1023.53 1022.97 1022.65 1022.97 1023.01 1022.89 1022.85 1022.85 1022.89 1022.93 1023.01 1023.33 1023.57 1023.65 1023.65 1023.57 1023.41 1023.05 1022.81 1022.69 1022.57 1022.45 1022.37 1022.49 1022.61 1022.61 1022.61 1022.53 1022.21 1021.93 1021.97 1022.13 1022.21 1022.37 1022.33 1022.61 1022.37 1022.45 1022.69 1022.17 1022.09 1022.05 1021.73 1021.97 1021.25 1021.45 1021.33 1021.21 1021.17 1020.93 1020.73 1020.21
1025.73 1025.69 1025.69 1025.65 1025.53 1025.33 1025.17 1025.13 1024.93 1024.37 1023.93 1023.41 1022.93 1022.61 1022.97 1023.17 1023.05 1022.97 1022.97 1023.09 1023.09 1023.13 1023.57 1023.81 1023.85 1023.69 1023.57 1023.45 1023.21 1022.97 1022.61 1022.61 1022.69 1022.97 1023.17 1023.25 1023.25 1023.25 1023.21 1023.01 1022.77 1022.77 1022.73 1022.69 1022.85 1022.85 1023.01 1022.81 1022.77 1022.81 1022.29 1022.25 1022.05 1022.09 1022.01 1021.73 1021.89 1021.49 1021.49 1021.29 1021.17 1020.69 1020.53
1025.69 1025.65 1025.61 1025.53 1025.41 1025.25 1025.05 1025.01 1024.69 1024.17 1023.85 1023.45 1022.89 1022.73 1023.01 1023.17 1023.13 1023.09 1023.25 1023.33 1023.45 1023.81 1024.05 1024.13 1024.09 1024.01 1023.93 1023.69 1023.45 1023.09 1022.49 1022.45 1022.85 1023.25 1023.57 1023.61 1023.73 1023.85 1023.93 1023.77 1023.49 1023.29 1023.29 1023.29 1023.25 1023.29 1023.29 1023.17 1022.89 1022.73 1022.57 1022.37 1022.25 1022.33 1022.25 1022.01 1021.89 1021.65 1021.57 1021.17 1020.77 1020.41 1020.25
1025.77 1025.61 1025.53 1025.41 1025.29 1025.17 1024.97 1024.93 1024.49 1024.13 1023.81 1023.41 1022.89 1022.85 1023.01 1023.13 1023.29 1023.53 1023.77 1023.93 1024.09 1024.29 1024.45 1024.45 1024.37 1024.29 1024.09 1023.93 1023.57 1023.09 1022.49 1022.81 1023.21 1023.49 1023.69 1023.85 1024.05 1024.21 1024.41 1024.57 1024.29 1023.81 1023.69 1023.65 1023.61 1023.53 1023.45 1023.25 1023.09 1022.89 1022.81 1022.69 1022.89 1023.05 1022.93 1022.41 1022.01 1022.05 1021.97 1021.61 1021.33 1020.85 1020.09
1025.69 1025.57 1025.49 1025.33 1025.13 1025.01 1024.93 1024.85 1024.61 1024.17 1023.81 1023.37 1022.89 1022.93 1023.17 1023.41 1023.61 1023.97 1024.25 1024.53 1024.77 1024.89 1024.89 1024.69 1024.57 1024.45 1024.29 1023.93 1023.65 1022.97 1022.77 1023.05 1023.45 1023.81 1024.01 1024.01 1024.13 1024.57 1024.73 1024.97 1024.97 1024.65 1024.33 1024.13 1024.01 1023.81 1023.73 1023.69 1023.69 1023.61 1023.45 1023.33 1023.29 1023.49 1023.61 1023.21 1022.69 1023.41 1023.17 1023.37 1022.33 1021.21 1020.85
1025.65 1025.53 1025.41 1025.21 1025.01 1024.85 1024.85 1024.77 1024.69 1024.25 1023.81 1023.37 1022.85 1022.81 1023.37 1023.77 1023.89 1024.21 1024.53 1024.93 1025.21 1025.33 1025.29 1025.09 1024.77 1024.53 1024.33 1023.97 1023.57 1022.89 1023.05 1023.33 1023.77 1024.17 1024.25 1024.25 1024.41 1024.69 1025.09 1025.25 1025.25 1025.17 1025.21 1024.85 1024.73 1024.57 1024.53 1024.49 1024.53 1024.53 1024.45 1024.25 1024.17 1024.17 1024.25 1024.33 1024.69 1024.49 1024.29 1024.01 1023.05 1022.93 1022.57
1025.65 1025.53 1025.33 1025.17 1025.09 1024.77 1024.65 1024.73 1024.69 1024.37 1023.85 1023.33 1022.97 1023.41 1023.85 1024.05 1024.33 1024.77 1025.17 1025.45 1025.65 1025.69 1025.61 1025.41 1025.13 1024.81 1024.45 1023.85 1023.29 1022.89 1023.33 1023.69 1024.13 1024.41 1024.49 1024.57 1024.77 1025.17 1025.49 1025.73 1025.81 1025.53 1025.57 1025.41 1025.37 1025.37 1025.37 1025.33 1025.33 1025.29 1025.25 1025.25 1025.09 1024.97 1025.01 1025.13 1025.21 1025.01 1024.73 1024.33 1024.09 1023.69 1023.17
1025.65 1025.49 1025.33 1025.17 1025.09 1024.97 1024.69 1024.73 1024.73 1024.49 1023.85 1023.33 1023.17 1023.53 1024.17 1024.45 1024.69 1025.17 1025.57 1025.85 1025.93 1025.97 1025.85 1025.69 1025.49 1025.17 1024.69 1023.77 1023.33 1023.25 1023.25 1023.69 1024.13 1024.69 1024.89 1024.93 1025.13 1025.45 1025.81 1026.21 1026.17 1025.89 1025.97 1026.01 1026.01 1026.09 1026.09 1026.13 1026.09 1025.97 1025.77 1025.69 1025.53 1025.53 1025.57 1025.65 1025.61 1025.57 1025.41 1025.25 1024.89 1024.57 1024.33
1025.65 1025.49 1025.33 1025.17 1025.01 1024.85 1024.73 1024.77 1024.81 1024.69 1024.01 1023.45 1023.33 1023.73 1024.37 1024.89 1025.25 1025.65 1025.89 1026.01 1026.05 1026.05 1025.93 1025.81 1025.57 1025.33 1024.77 1023.97 1023.69 1023.73 1023.85 1024.01 1024.33 1024.77 1025.13 1025.25 1025.45 1025.69 1026.05 1026.45 1026.49 1026.37 1026.33 1026.37 1026.41 1026.45 1026.45 1026.49 1026.53 1026.49 1026.41 1026.33 1026.29 1026.21 1026.25 1026.25 1026.17 1026.13 1026.05 1025.93 1025.69 1025.53 1025.29
1025.57 1025.41 1025.25 1025.09 1024.77 1024.65 1024.77 1024.77 1024.73 1024.77 1024.37 1023.77 1023.57 1023.85 1024.33 1025.05 1025.41 1025.65 1025.85 1025.93 1026.09 1026.09 1026.01 1025.89 1025.65 1025.45 1024.69 1024.21 1024.13 1024.21 1024.37 1024.61 1024.89 1025.13 1025.41 1025.37 1025.65 1025.97 1026.33 1026.81 1026.93 1026.89 1026.81 1026.73 1026.77 1026.81 1026.77 1026.81 1026.81 1026.77 1026.69 1026.69 1026.73 1026.77 1026.73 1026.69 1026.57 1026.49 1026.45 1026.45 1026.37 1026.17 1025.97
1025.41 1025.21 1025.05 1024.93 1024.85 1025.01 1025.09 1025.09 1024.97 1024.77 1024.73 1024.29 1023.73 1023.81 1024.17 1024.61 1025.13 1025.45 1025.89 1025.89 1026.09 1026.17 1026.09 1026.01 1025.73 1025.29 1024.73 1024.61 1024.65 1024.85 1025.05 1025.25 1025.57 1025.85 1025.85 1025.97 1026.29 1026.69 1027.05 1027.17 1027.21 1027.17 1027.09 1027.01 1027.01 1027.01 1027.05 1027.13 1027.17 1027.13 1027.01 1026.97 1026.97 1027.01 1026.93 1026.81 1026.69 1026.65 1026.61 1026.53 1026.45 1026.41 1026.37
1025.29 1025.05 1024.85 1024.93 1025.17 1025.33 1025.45 1025.45 1025.33 1025.09 1024.89 1024.85 1024.49 1024.21 1024.45 1024.69 1025.01 1025.57 1026.13 1026.29 1026.33 1026.29 1026.13 1025.93 1025.69 1025.33 1025.09 1025.21 1025.45 1025.69 1025.97 1026.13 1026.25 1026.33 1026.53 1026.85 1027.17 1027.33 1027.41 1027.57 1027.53 1027.53 1027.45 1027.37 1027.29 1027.29 1027.33 1027.37 1027.45 1027.53 1027.41 1027.33 1027.37 1027.33 1027.13 1026.97 1026.81 1026.69 1026.61 1026.49 1026.45 1026.41 1026.29
1025.13 1024.97 1024.97 1025.13 1025.29 1025.49 1025.65 1025.73 1025.69 1025.57 1025.33 1025.17 1025.13 1024.85 1024.93 1025.25 1025.61 1025.97 1026.21 1026.37 1026.41 1026.29 1026.01 1025.77 1025.73 1025.97 1026.13 1026.29 1026.45 1026.81 1027.13 1027.29 1027.37 1027.37 1027.45 1027.61 1027.69 1027.81 1027.85 1027.85 1027.85 1027.81 1027.73 1027.53 1027.57 1027.65 1027.73 1027.73 1027.73 1027.81 1027.77 1027.69 1027.57 1027.45 1027.21 1026.93 1026.81 1026.73 1026.65 1026.49 1026.41 1026.29 1026.21
1025.21 1025.17 1025.21 1025.29 1025.49 1025.57 1025.77 1025.89 1025.89 1025.77 1025.77 1025.77 1025.81 1025.81 1025.65 1025.77 1026.09 1026.21 1026.33 1026.41 1026.41 1026.41 1026.53 1026.61 1026.77 1026.97 1027.21 1027.41 1027.61 1027.73 1027.81 1027.89 1027.97 1028.01 1028.05 1028.13 1028.25 1028.29 1028.21 1028.21 1028.13 1028.09 1027.93 1027.89 1027.97 1027.93 1027.93 1027.97 1028.05 1028.01 1027.89 1027.81 1027.69 1027.45 1027.09 1026.93 1026.73 1026.45 1026.25 1026.13 1025.97 1025.77 1025.77
1025.25 1025.21 1025.25 1025.37 1025.53 1025.69 1025.81 1025.89 1025.97 1025.85 1025.77 1025.93 1026.13 1026.33 1026.45 1026.45 1026.49 1026.53 1026.73 1027.01 1027.09 1027.09 1027.17 1027.25 1027.45 1027.61 1027.77 1027.89 1028.05 1028.17 1028.33 1028.41 1028.57 1028.61 1028.69 1028.81 1028.81 1028.69 1028.53 1028.45 1028.41 1028.41 1028.29 1028.25 1028.21 1028.17 1028.25 1028.29 1028.29 1028.29 1028.05 1027.81 1027.65 1027.45 1027.29 1027.17 1026.97 1026.65 1026.45 1026.17 1026.05 1025.97 1025.69
1025.29 1025.17 1025.25 1025.33 1025.57 1025.65 1025.69 1025.69 1025.81 1025.89 1025.81 1025.89 1026.13 1026.37 1026.49 1026.61 1026.73 1026.93 1027.05 1027.33 1027.61 1027.69 1027.81 1027.97 1028.13 1028.29 1028.45 1028.53 1028.65 1028.77 1028.89 1028.97 1029.01 1029.05 1029.01 1028.97 1028.97 1028.93 1028.85 1028.73 1028.65 1028.61 1028.65 1028.57 1028.57 1028.49 1028.49 1028.41 1028.37 1028.13 1027.97 1027.93 1027.81 1027.61 1027.49 1027.33 1027.13 1026.77 1026.65 1026.33 1026.09 1025.65 1025.29
1025.33 1025.29 1025.37 1025.49 1025.57 1025.61 1025.61 1025.73 1025.57 1025.53 1025.85 1025.81 1025.93 1026.17 1026.45 1026.57 1026.77 1027.01 1027.21 1027.41 1027.65 1027.97 1028.17 1028.25 1028.33 1028.41 1028.57 1028.65 1028.65 1028.77 1028.89 1028.97 1028.93 1028.97 1029.17 1029.09 1029.01 1029.05 1029.01 1028.97 1028.89 1028.73 1028.73 1028.69 1028.57 1028.45 1028.45 1028.41 1028.45 1028.37 1028.29 1028.13 1027.93 1027.73 1027.65 1027.61 1027.41 1027.25 1027.09 1026.85 1026.65 1026.41 1026.09
1024.89 1025.13 1025.57 1025.73 1025.93 1025.97 1025.77 1025.77 1025.77 1025.49 1024.81 1024.69 1025.45 1025.89 1026.25 1026.41 1026.53 1026.85 1027.17 1027.33 1027.65 1027.93 1028.09 1028.37 1028.37 1028.53 1028.53 1028.57 1028.61 1028.57 1028.69 1028.81 1028.93 1028.97 1028.97 1029.13 1029.13 1029.13 1028.97 1029.01 1029.05 1029.05 1029.05 1028.93 1028.85 1028.77 1028.73 1028.61 1028.61 1028.53 1028.41 1028.33 1028.13 1028.01 1028.01 1027.93 1027.65 1027.49 1027.41 1027.13 1026.69 1026.53 1026.29
1024.29 1025.01 1025.45 1025.61 1025.89 1025.89 1025.81 1025.77 1025.69 1025.45 1024.73 1024.57 1024.97 1025.25 1025.49 1025.89 1026.37 1026.81 1027.13 1027.53 1027.69 1028.01 1028.17 1028.13 1028.21 1028.45 1028.61 1028.73 1028.77 1028.73 1028.81 1028.97 1028.97 1029.01 1029.05 1029.09 1029.25 1029.29 1029.21 1029.25 1029.25 1029.29 1029.29 1029.17 1029.05 1028.97 1028.97 1028.89 1028.77 1028.65 1028.57 1028.41 1028.33 1028.17 1028.17 1028.13 1028.01 1027.89 1027.65 1027.33 1027.05 1026.77 1026.41
1024.65 1024.85 1025.25 1025.65 1025.85 1025.93 1026.01 1025.89 1025.73 1025.41 1024.85 1025.09 1025.29 1025.57 1025.65 1025.77 1026.13 1026.57 1027.17 1027.61 1027.85 1028.05 1028.33 1028.41 1028.37 1028.49 1028.61 1028.73 1028.65 1028.81 1029.01 1029.13 1029.17 1029.25 1029.29 1029.29 1029.13 1029.17 1029.41 1029.41 1029.37 1029.57 1029.57 1029.33 1029.21 1029.13 1029.05 1028.97 1028.89 1028.81 1028.69 1028.61 1028.49 1028.37 1028.33 1028.17 1027.93 1027.77 1027.57 1027.33 1027.17 1026.89 1026.53
1025.45 1025.49 1025.45 1025.53 1025.53 1025.53 1025.65 1025.81 1025.77 1025.49 1025.45 1025.53 1025.73 1026.09 1026.29 1026.29 1026.77 1027.17 1027.57 1027.85 1027.93 1028.01 1028.29 1028.49 1028.49 1028.49 1028.65 1028.69 1028.65 1028.89 1029.01 1029.13 1029.25 1029.33 1029.37 1029.49 1029.45 1029.37 1029.49 1029.69 1029.85 1030.01 1029.65 1029.53 1029.37 1029.29 1029.21 1029.09 1028.97 1028.89 1028.77 1028.69 1028.65 1028.49 1028.21 1028.13 1028.01 1027.93 1027.81 1027.57 1027.25 1026.97 1026.73
1026.09 1026.09 1026.17 1026.17 1026.17 1026.21 1026.21 1026.13 1026.05 1026.09 1026.13 1026.13 1026.17 1026.29 1026.65 1026.93 1027.17 1027.45 1027.73 1027.85 1027.97 1028.25 1028.25 1028.53 1028.45 1028.53 1028.61 1028.77 1028.89 1029.01 1029.13 1029.17 1029.29 1029.45 1029.45 1029.49 1029.57 1029.65 1029.77 1029.77 1029.97 1029.69 1029.45 1029.45 1029.41 1029.33 1029.21 1029.09 1028.97 1028.93 1028.77 1028.61 1028.61 1028.61 1028.53 1028.29 1028.13 1028.05 1027.81 1027.57 1027.33 1027.01 1026.73
1026.49 1026.53 1026.49 1026.65 1026.69 1026.65 1026.65 1026.65 1026.57 1026.53 1026.57 1026.61 1026.73 1026.61 1026.61 1027.01 1027.49 1027.77 1028.09 1028.33 1028.57 1028.45 1028.45 1028.37 1028.37 1028.45 1028.65 1028.81 1028.81 1028.97 1029.09 1029.09 1029.21 1029.29 1029.29 1029.29 1029.37 1029.45 1029.53 1029.53 1029.45 1029.37 1029.41 1029.29 1029.25 1029.13 1029.01 1028.93 1028.85 1028.85 1028.81 1028.69 1028.53 1028.37 1028.21 1028.09 1028.05 1027.97 1027.81 1027.49 1027.21 1026.89 1026.53
1026.61 1026.89 1026.85 1026.69 1026.73 1026.73 1026.77 1026.77 1026.77 1026.69 1026.57 1026.53 1026.73 1026.93 1027.21 1027.17 1027.37 1027.61 1027.93 1028.13 1028.49 1028.53 1028.57 1028.69 1028.65 1028.73 1028.73 1028.93 1028.93 1029.05 1029.05 1029.17 1029.17 1029.21 1029.29 1029.41 1029.41 1029.21 1029.29 1029.29 1029.21 1029.17 1029.05 1029.09 1029.05 1028.93 1028.89 1028.81 1028.73 1028.77 1028.73 1028.73 1028.53 1028.29 1028.09 1028.01 1027.93 1027.77 1027.61 1027.33 1027.09 1026.77 1026.45
Thickness
5183 5184 5185 5186 5187 5190 5193 5196 5200 5202 5205 5209 5214 5219 5225 5231 5236 5241 5247 5251 5256 5260 5265 5270 5275 5280 5285 5289 5294 5298 5301 5304 5306 5307 5309 5310 5310 5311 5313 5315 5315 5319 5332 5338 5338 5341 5343 5343 5346 5347 5348 5351 5352 5352 5352 5354 5357 5358 5359 5360 5362 5363 5364
5171 5171 5171 5173 5174 5175 5177 5180 5184 5186 5188 5192 5197 5203 5210 5215 5221 5225 5230 5236 5241 5246 5251 5257 5264 5268 5273 5278 5281 5285 5288 5291 5294 5296 5298 5300 5300 5303 5306 5306 5306 5309 5318 5324 5326 5329 5331 5331 5333 5334 5335 5337 5339 5340 5341 5342 5345 5346 5349 5351 5352 5354 5356
5159 5159 5159 5160 5161 5162 5164 5165 5168 5171 5173 5176 5181 5187 5193 5198 5204 5209 5215 5221 5227 5233 5239 5244 5251 5256 5260 5265 5268 5271 5274 5277 5280 5282 5285 5288 5289 5292 5295 5296 5297 5300 5305 5310 5313 5316 5318 5319 5321 5322 5322 5322 5325 5326 5327 5329 5332 5334 5337 5340 5341 5344 5347
5145 5145 5145 5146 5147 5149 5150 5152 5155 5156 5158 5161 5165 5170 5176 5182 5187 5192 5199 5206 5212 5219 5224 5230 5236 5240 5245 5250 5253 5255 5259 5262 5265 5268 5270 5273 5275 5278 5282 5284 5286 5288 5292 5296 5299 5302 5304 5306 5307 5308 5308 5309 5311 5312 5314 5316 5319 5321 5324 5327 5330 5334 5336
5130 5130 5130 5131 5132 5134 5136 5138 5140 5142 5145 5148 5152 5157 5162 5167 5172 5177 5183 5190 5197 5203 5208 5214 5219 5224 5229 5233 5236 5239 5242 5245 5248 5251 5254 5257 5259 5262 5266 5270 5273 5275 5279 5282 5285 5288 5289 5291 5293 5294 5295 5296 5297 5298 5300 5302 5306 5308 5311 5314 5319 5323 5325
5113 5112 5113 5114 5116 5119 5121 5123 5125 5127 5130 5134 5137 5143 5148 5153 5158 5164 5169 5176 5181 5186 5192 5198 5203 5208 5212 5216 5219 5221 5224 5228 5231 5235 5239 5242 5244 5248 5251 5255 5258 5261 5265 5269 5271 5274 5275 5277 5279 5280 5281 5282 5283 5285 5287 5290 5292 5295 5298 5302 5306 5310 5312
5097 5096 5097 5099 5100 5102 5105 5108 5109 5111 5115 5119 5123 5128 5133 5139 5145 5150 5156 5161 5166 5171 5175 5181 5187 5191 5195 5198 5201 5204 5208 5212 5215 5219 5223 5227 5230 5234 5238 5241 5243 5247 5251 5255 5258 5260 5262 5264 5265 5267 5268 5269 5270 5272 5275 5276 5278 5283 5287 5290 5293 5297 5300
5083 5083 5083 5084 5085 5087 5090 5093 5093 5095 5099 5103 5107 5114 5119 5126 5132 5138 5143 5148 5152 5156 5160 5166 5171 5174 5178 5181 5185 5189 5193 5197 5201 5204 5209 5213 5217 5221 5224 5227 5231 5234 5237 5241 5243 5245 5247 5249 5251 5252 5253 5255 5257 5260 5263 5264 5266 5272 5277 5278 5280 5286 5289
5072 5072 5071 5071 5072 5074 5077 5079 5079 5081 5085 5088 5093 5100 5107 5114 5120 5126 5131 5135 5138 5142 5145 5150 5153 5157 5160 5164 5169 5174 5178 5183 5187 5191 5195 5199 5203 5207 5210 5214 5217 5221 5223 5226 5228 5230 5232 5235 5237 5237 5238 5240 5242 5244 5248 5252 5254 5261 5267 5267 5269 5276 5279
5062 5061 5060 5060 5060 5062 5065 5067 5067 5069 5073 5077 5082 5088 5095 5101 5107 5112 5117 5120 5124 5127 5130 5133 5137 5141 5144 5148 5153 5158 5163 5169 5173 5177 5181 5185 5189 5192 5196 5200 5204 5206 5208 5210 5212 5214 5217 5220 5220 5220 5221 5223 5225 5228 5233 5236 5238 5244 5251 5253 5256 5265 5268
5052 5051 5050 5049 5049 5051 5054 5054 5056 5059 5063 5068 5073 5078 5082 5088 5093 5098 5101 5105 5110 5113 5115 5117 5121 5125 5129 5133 5137 5142 5147 5153 5158 5163 5167 5170 5173 5177 5180 5185 5189 5191 5193 5195 5197 5198 5200 5201 5201 5201 5204 5207 5210 5213 5217 5220 5222 5228 5234 5236 5241 5250 5255
5042 5041 5039 5039 5040 5041 5042 5043 5045 5049 5053 5058 5063 5067 5070 5075 5080 5084 5088 5092 5095 5099 5101 5103 5106 5111 5115 5119 5123 5128 5132 5138 5144 5149 5153 5155 5158 5161 5165 5169 5173 5175 5177 5179 5181 5181 5181 5183 5184 5185 5187 5191 5195 5198 5202 5205 5208 5212 5216 5218 5223 5231 5238
5031 5030 5029 5030 5030 5031 5032 5033 5035 5039 5043 5047 5052 5055 5058 5063 5068 5072 5075 5077 5081 5084 5087 5090 5094 5098 5102 5105 5110 5114 5119 5124 5129 5135 5139 5142 5144 5145 5148 5152 5156 5159 5161 5162 5164 5165 5165 5167 5169 5170 5173 5178 5181 5184 5188 5191 5194 5197 5199 5202 5207 5213 5220
5022 5020 5020 5020 5020 5022 5023 5023 5026 5029 5033 5037 5041 5044 5048 5052 5056 5060 5062 5064 5067 5071 5075 5078 5081 5084 5087 5090 5096 5101 5107 5112 5118 5122 5125 5127 5129 5130 5132 5136 5139 5143 5145 5147 5149 5149 5150 5153 5155 5157 5161 5165 5169 5173 5176 5178 5180 5183 5185 5190 5195 5200 5205
5012 5011 5012 5011 5012 5013 5014 5015 5018 5021 5023 5027 5031 5034 5037 5041 5045 5048 5049 5052 5055 5059 5061 5064 5067 5069 5071 5076 5083 5090 5097 5104 5108 5111 5112 5113 5113 5115 5117 5120 5124 5127 5129 5132 5133 5134 5136 5139 5142 5146 5149 5153 5157 5161 5163 5165 5167 5169 5173 5178 5184 5189 5194
5003 5003 5003 5003 5004 5005 5006 5007 5010 5012 5015 5018 5021 5024 5028 5032 5033 5035 5036 5040 5043 5045 5048 5051 5053 5054 5058 5064 5071 5079 5088 5095 5099 5098 5098 5099 5099 5101 5102 5104 5107 5111 5114 5117 5119 5121 5124 5127 5130 5134 5136 5140 5145 5146 5148 5151 5153 5155 5158 5161 5168 5177 5181
4995 4994 4995 4996 4997 4998 4998 5000 5002 5004 5007 5010 5014 5017 5020 5022 5022 5023 5025 5028 5030 5033 5036 5039 5041 5042 5048 5055 5061 5070 5078 5084 5087 5085 5084 5086 5087 5089 5090 5090 5093 5096 5100 5104 5106 5109 5112 5114 5116 5119 5121 5124 5129 5131 5132 5136 5137 5137 5139 5143 5150 5159 5163
4987 4986 4987 4989 4990 4991 4992 4993 4994 4997 5000 5004 5008 5011 5013 5012 5012 5013 5015 5016 5019 5021 5025 5028 5031 5034 5039 5045 5052 5061 5068 5073 5074 5072 5071 5073 5077 5078 5078 5078 5080 5084 5087 5091 5094 5095 5098 5100 5102 5103 5105 5108 5112 5115 5116 5118 5117 5118 5122 5125 5131 5137 5142
4980 4980 4982 4983 4984 4985 4986 4986 4987 4990 4994 4998 5003 5005 5004 5004 5004 5004 5005 5006 5009 5012 5015 5019 5023 5025 5030 5037 5045 5052 5058 5062 5061 5058 5059 5063 5066 5066 5065 5065 5068 5071 5074 5077 5080 5082 5084 5086 5088 5089 5091 5093 5095 5098 5100 5101 5100 5103 5107 5110 5113 5117 5122
4975 4976 4977 4978 4979 4980 4980 4981 4982 4985 4989 4994 4998 4999 4997 4997 4997 4996 4997 4999 5002 5005 5008 5011 5015 5017 5022 5030 5037 5042 5048 5051 5049 5047 5049 5054 5055 5055 5054 5054 5057 5059 5062 5064 5066 5068 5069 5071 5073 5075 5077 5079 5081 5082 5084 5085 5086 5088 5090 5092 5096 5098 5101
4971 4972 4973 4974 4975 4975 4976 4977 4978 4980 4984 4990 4994 4993 4992 4990 4990 4990 4992 4994 4997 5000 5002 5005 5008 5012 5017 5024 5030 5033 5036 5039 5040 5038 5041 5044 5045 5044 5044 5044 5046 5048 5050 5052 5053 5056 5057 5058 5060 5062 5063 5065 5066 5067 5069 5070 5071 5073 5073 5075 5078 5080 5082
4968 4969 4970 4972 4973 4973 4973 4974 4976 4977 4980 4986 4990 4990 4988 4987 4987 4988 4990 4991 4993 4995 4997 5000 5003 5008 5013 5018 5022 5024 5026 5029 5030 5030 5032 5034 5035 5035 5035 5035 5036 5038 5040 5042 5043 5045 5046 5047 5048 5050 5051 5052 5053 5053 5054 5056 5057 5058 5058 5059 5060 5061 5064
4966 4967 4969 4969 4970 4970 4970 4971 4973 4975 4977 4982 4986 4986 4986 4986 4987 4987 4986 4987 4989 4991 4993 4996 4999 5004 5009 5012 5014 5015 5017 5019 5020 5020 5023 5024 5024 5024 5025 5025 5027 5029 5031 5033 5034 5035 5036 5036 5036 5038 5039 5040 5040 5040 5042 5043 5044 5045 5046 5047 5047 5046 5047
4965 4967 4968 4968 4967 4967 4967 4968 4970 4972 4974 4977 4980 4982 4983 4984 4984 4983 4982 4984 4985 4987 4990 4993 4996 4999 5002 5005 5006 5007 5007 5008 5010 5011 5012 5013 5014 5015 5016 5017 5019 5020 5022 5025 5026 5027 5027 5026 5026 5027 5027 5028 5028 5029 5030 5032 5032 5033 5034 5034 5035 5034 5033
4965 4965 4966 4966 4965 4965 4965 4965 4967 4969 4971 4973 4976 4977 4979 4979 4979 4979 4979 4980 4982 4984 4986 4990 4991 4992 4994 4995 4996 4996 4997 4998 5000 5001 5003 5004 5005 5006 5007 5009 5011 5012 5015 5017 5018 5017 5018 5017 5016 5016 5017 5017 5018 5019 5021 5022 5022 5023 5024 5024 5024 5023 5021
4964 4964 4965 4965 4964 4964 4964 4964 4965 4967 4968 4970 4971 4972 4974 4974 4974 4975 4976 4977 4979 4980 4982 4983 4984 4984 4985 4986 4987 4988 4989 4990 4991 4992 4994 4995 4996 4998 4999 5001 5003 5005 5007 5008 5008 5008 5008 5008 5006 5007 5007 5008 5009 5011 5011 5012 5013 5014 5015 5015 5015 5014 5012
4964 4964 4964 4964 4963 4963 4964 4964 4964 4966 4967 4968 4968 4969 4969 4970 4971 4972 4972 4972 4973 4974 4975 4977 4977 4978 4978 4979 4980 4981 4981 4982 4983 4985 4986 4987 4988 4990 4992 4993 4995 4996 4997 4999 4999 4999 4998 4998 4997 4998 4998 4999 5000 5001 5001 5001 5002 5004 5004 5004 5004 5005 5004
4963 4964 4964 4964 4964 4964 4964 4965 4965 4965 4966 4967 4968 4967 4968 4968 4968 4969 4969 4968 4969 4969 4970 4970 4971 4972 4973 4973 4974 4976 4975 4976 4978 4978 4980 4981 4982 4983 4985 4986 4987 4988 4989 4989 4989 4990 4990 4989 4989 4989 4990 4989 4990 4991 4990 4989 4990 4991 4991 4990 4992 4993 4994
4965 4965 4964 4964 4963 4964 4965 4966 4966 4966 4967 4968 4968 4967 4967 4967 4967 4967 4966 4966 4966 4966 4966 4968 4968 4968 4970 4970 4972 4973 4973 4974 4974 4975 4975 4976 4977 4978 4978 4979 4980 4981 4981 4981 4981 4982 4982 4981 4981 4980 4979 4979 4980 4979 4978 4977 4977 4978 4977 4977 4978 4978 4978
4968 4966 4965 4964 4963 4963 4964 4965 4965 4967 4971 4971 4970 4968 4968 4967 4966 4966 4965 4964 4964 4964 4964 4966 4966 4967 4967 4968 4969 4970 4971 4971 4971 4972 4972 4971 4971 4972 4972 4973 4973 4972 4972 4972 4972 4973 4972 4971 4971 4971 4970 4969 4970 4968 4966 4965 4964 4964 4964 4964 4965 4965 4963
4972 4969 4966 4965 4964 4963 4964 4965 4966 4968 4972 4973 4971 4969 4969 4968 4966 4965 4963 4962 4961 4962 4962 4963 4964 4964 4964 4964 4965 4966 4966 4966 4965 4966 4966 4966 4965 4965 4965 4965 4965 4963 4962 4963 4963 4963 4962 4961 4961 4961 4960 4959 4959 4957 4956 4954 4952 4952 4952 4951 4951 4951 4950
4971 4969 4968 4966 4965 4964 4964 4964 4965 4967 4969 4969 4968 4967 4967 4966 4964 4962 4960 4959 4959 4959 4959 4959 4960 4960 4959 4960 4961 4960 4959 4959 4959 4959 4959 4959 4959 4959 4957 4956 4956 4954 4953 4955 4955 4954 4954 4953 4952 4952 4951 4950 4949 4947 4947 4945 4943 4942 4941 4940 4939 4938 4938
4967 4967 4966 4965 4965 4965 4964 4963 4964 4964 4965 4965 4964 4962 4961 4960 4959 4957 4955 4954 4955 4955 4955 4954 4955 4955 4955 4955 4955 4954 4953 4953 4953 4953 4952 4952 4952 4952 4950 4948 4947 4946 4947 4947 4947 4947 4947 4946 4944 4943 4943 4941 4940 4939 4938 4937 4935 4933 4931 4931 4930 4929 4926
4964 4964 4962 4962 4961 4961 4960 4960 4960 4960 4960 4959 4958 4958 4956 4954 4953 4951 4950 4949 4949 4950 4950 4950 4950 4951 4951 4950 4950 4949 4948 4948 4947 4946 4947 4946 4946 4945 4944 4942 4941 4942 4942 4942 4941 4940 4940 4939 4938 4937 4936 4935 4934 4932 4931 4930 4927 4926 4924 4923 4922 4921 4917
4963 4961 4960 4959 4958 4957 4956 4956 4955 4955 4954 4953 4953 4952 4952 4950 4949 4947 4946 4944 4944 4944 4945 4946 4946 4947 4946 4945 4945 4944 4944 4944 4944 4943 4943 4943 4942 4941 4941 4940 4939 4939 4939 4938 4937 4936 4936 4934 4933 4931 4930 4929 4929 4927 4926 4925 4922 4920 4918 4916 4915 4913 4911
4962 4959 4957 4957 4956 4954 4954 4953 4952 4952 4952 4951 4949 4947 4946 4946 4946 4945 4944 4942 4941 4940 4940 4941 4941 4942 4941 4941 4941 4941 4940 4940 4941 4940 4940 4939 4939 4939 4939 4938 4937 4937 4936 4935 4934 4933 4932 4930 4929 4927 4925 4925 4925 4923 4922 4920 4917 4914 4913 4910 4908 4907 4904